Orbital Elements at Epoch 2459200.5 (2020-Dec-17.0) TDB
Reference: JPL 14 (heliocentric ecliptic J2000)
Element | Value | Uncertainty (1-sigma) | Units |
e | .2237330585662226 | 4.8474e-08 | |
a | 2.388500627703845 | 1.3469e-08 | au |
q | 1.854114076880321 | 1.1861e-07 | au |
i | 4.306739654659841 | 8.7717e-06 | deg |
node | 323.7445161689862 | 5.4744e-05 | deg |
peri | 65.11863670384602 | 5.9205e-05 | deg |
M | 188.9898789775592 | 2.0742e-05 | deg |
tp | 2459840.980305725944 (2022-Sep-18.48030573) | 8.0323e-05 | TDB |
period | 1348.299788824095 3.69 | 1.1404e-05 3.122e-08 | d yr |
n | .2670029343503569 | 2.2584e-09 | deg/d |
Q | 2.922887178527369 | 1.6482e-08 | au |
|
| | Orbit Determination Parameters
Additional Information
|